Location: Estes Park
(40.3770°N, 105.5210°W)
Time: 07:49:52
(UTC-06:00)

Envisat - Pass Details

Date: 07 October 2017
Orbit: 764 x 766 km, 98.2° (Epoch: 22 October)

Event Time Altitude Azimuth Distance (km) Brightness Sun altitude
Exits shadow 20:58:36 76° 302° (WNW) 789 3.0 -28.1°
Drops below altitude 10° 21:03:25 10° 345° (NNW) 2,305 5.8 -29.0°
Sets 21:05:44 0° 346° (NNW) 3,236 6.7 -29.4°
